When you browse on this site, cookies collect data to enhance your experience and personalize the content and advertising you see.
Visit our Privacy Policy to learn more. By continuing to use the site, you agree to this use of cookies and data.
  • en France
  • Liste des pays
  • À 7 jours
  • Température de l'eau
  • Carte satellitaire
  • Carte météo
  • Widgets météo
  • user-avatar
    Se connecter

    Météo par heure à Oran

    Ce jour, 23 Janvier, Mercredi

    Heure Température Précipitation Vent Pression Humidité
    00:00 +9°C° 0 mm 13 m/s 749 mmHg 78%
    01:00 +10°C° 0.8 mm 13 m/s 749 mmHg 77%
    02:00 +10°C° 0.8 mm 13 m/s 748 mmHg 77%
    03:00 +10°C° 0.8 mm 13 m/s 748 mmHg 77%
    04:00 +10°C° 1.1 mm 13 m/s 748 mmHg 77%
    05:00 +10°C° 1.1 mm 13 m/s 748 mmHg 77%
    06:00 +12°C° 0 mm 13 m/s 747 mmHg 78%
    07:00 +12°C° 0.5 mm 13 m/s 747 mmHg 76%
    08:00 +12°C° 0.5 mm 12 m/s 747 mmHg 75%
    09:00 +12°C° 0.5 mm 12 m/s 747 mmHg 74%
    10:00 +13°C° 0 mm 13 m/s 747 mmHg 72%
    11:00 +13°C° 0 mm 13 m/s 747 mmHg 70%
    12:00 +13°C° 0 mm 14 m/s 747 mmHg 68%
    13:00 +13°C° 0 mm 14 m/s 747 mmHg 69%
    14:00 +13°C° 0 mm 14 m/s 747 mmHg 71%
    15:00 +13°C° 0 mm 14 m/s 746 mmHg 72%
    16:00 +13°C° 0 mm 14 m/s 746 mmHg 73%
    17:00 +13°C° 0 mm 13 m/s 746 mmHg 74%
    18:00 +12°C° 0 mm 12 m/s 746 mmHg 75%
    19:00 +12°C° 0 mm 12 m/s 747 mmHg 75%
    20:00 +12°C° 0 mm 12 m/s 747 mmHg 76%
    21:00 +13°C° 0 mm 12 m/s 747 mmHg 77%
    22:00 +13°C° 0 mm 12 m/s 747 mmHg 78%
    23:00 +13°C° 0 mm 12 m/s 747 mmHg 79%

    Demain, 24 Janvier, Jeudi

    Heure Température Précipitation Vent Pression Humidité
    00:00 +13°C° 0 mm 12 m/s 747 mmHg 80%
    01:00 +12°C° 0 mm 12 m/s 747 mmHg 80%
    02:00 +12°C° 0 mm 12 m/s 747 mmHg 80%
    03:00 +12°C° 0 mm 12 m/s 747 mmHg 80%
    04:00 +12°C° 0 mm 11 m/s 746 mmHg 81%
    05:00 +12°C° 0 mm 11 m/s 746 mmHg 81%
    06:00 +12°C° 0 mm 10 m/s 746 mmHg 81%
    07:00 +13°C° 0 mm 11 m/s 746 mmHg 80%
    08:00 +13°C° 0 mm 11 m/s 747 mmHg 78%
    09:00 +13°C° 0 mm 11 m/s 747 mmHg 76%
    10:00 +14°C° 0.1 mm 11 m/s 747 mmHg 73%
    11:00 +14°C° 0.1 mm 11 m/s 747 mmHg 71%
    12:00 +16°C° 0.1 mm 11 m/s 747 mmHg 68%
    13:00 +16°C° 0.1 mm 10 m/s 747 mmHg 68%
    14:00 +16°C° 0.1 mm 10 m/s 747 mmHg 68%
    15:00 +16°C° 0.1 mm 9 m/s 747 mmHg 68%
    16:00 +15°C° 0.3 mm 8 m/s 747 mmHg 72%
    17:00 +14°C° 0.3 mm 7 m/s 747 mmHg 77%
    18:00 +14°C° 0.3 mm 5 m/s 748 mmHg 81%
    19:00 +14°C° 0.4 mm 5 m/s 748 mmHg 79%
    20:00 +14°C° 0.4 mm 5 m/s 749 mmHg 77%
    21:00 +14°C° 0.4 mm 4 m/s 749 mmHg 75%
    22:00 +14°C° 0 mm 4 m/s 749 mmHg 77%
    23:00 +13°C° 0 mm 3 m/s 749 mmHg 79%

    Après-demain, 25 Janvier, Vendredi

    Heure Température Précipitation Vent Pression Humidité
    00:00 +13°C° 0 mm 3 m/s 749 mmHg 81%
    01:00 +13°C° 0.1 mm 4 m/s 749 mmHg 79%
    02:00 +13°C° 0.1 mm 5 m/s 750 mmHg 78%
    03:00 +14°C° 0.1 mm 6 m/s 750 mmHg 77%
    04:00 +13°C° 0 mm 6 m/s 750 mmHg 77%
    05:00 +13°C° 0 mm 5 m/s 750 mmHg 78%
    06:00 +12°C° 0 mm 4 m/s 750 mmHg 78%
    07:00 +13°C° 0 mm 4 m/s 751 mmHg 73%
    08:00 +14°C° 0 mm 5 m/s 752 mmHg 69%
    09:00 +14°C° 0 mm 5 m/s 752 mmHg 64%
    10:00 +15°C° 0 mm 5 m/s 753 mmHg 60%
    11:00 +15°C° 0 mm 6 m/s 753 mmHg 57%
    12:00 +16°C° 0 mm 7 m/s 753 mmHg 53%
    13:00 +16°C° 0 mm 6 m/s 753 mmHg 52%
    14:00 +16°C° 0 mm 5 m/s 753 mmHg 50%
    15:00 +17°C° 0 mm 4 m/s 752 mmHg 49%
    16:00 +16°C° 0 mm 3 m/s 752 mmHg 52%
    17:00 +14°C° 0 mm 3 m/s 752 mmHg 56%
    18:00 +14°C° 0 mm 2 m/s 752 mmHg 60%
    19:00 +12°C° 0 mm 3 m/s 753 mmHg 60%
    20:00 +12°C° 0 mm 3 m/s 753 mmHg 59%
    21:00 +12°C° 0 mm 3 m/s 753 mmHg 59%
    22:00 +12°C° 0 mm 3 m/s 753 mmHg 59%
    23:00 +12°C° 0 mm 3 m/s 753 mmHg 59%

    26 Janvier, Samedi

    Heure Température Précipitation Vent Pression Humidité
    00:00 +12°C° 0 mm 3 m/s 753 mmHg 59%
    01:00 +12°C° 0 mm 3 m/s 753 mmHg 61%
    02:00 +11°C° 0 mm 3 m/s 753 mmHg 63%
    03:00 +12°C° 0 mm 2 m/s 753 mmHg 65%
    04:00 +12°C° 0 mm 2 m/s 753 mmHg 69%
    05:00 +12°C° 0 mm 2 m/s 753 mmHg 73%
    06:00 +10°C° 0 mm 2 m/s 753 mmHg 78%
    07:00 +13°C° 0 mm 1 m/s 754 mmHg 73%
    08:00 +14°C° 0 mm 1 m/s 754 mmHg 68%
    09:00 +15°C° 0 mm 1 m/s 755 mmHg 64%
    10:00 +16°C° 0 mm 1 m/s 755 mmHg 59%
    11:00 +18°C° 0 mm 1 m/s 755 mmHg 55%
    12:00 +18°C° 0 mm 1 m/s 755 mmHg 51%
    13:00 +18°C° 0 mm 2 m/s 754 mmHg 49%
    14:00 +18°C° 0 mm 2 m/s 754 mmHg 47%
    15:00 +18°C° 0 mm 2 m/s 753 mmHg 46%
    16:00 +18°C° 0 mm 1 m/s 753 mmHg 52%
    17:00 +15°C° 0 mm 1 m/s 753 mmHg 59%
    18:00 +12°C° 0 mm 0 m/s 753 mmHg 66%
    19:00 +12°C° 0 mm 0 m/s 753 mmHg 65%
    20:00 +13°C° 0 mm 1 m/s 753 mmHg 63%
    21:00 +13°C° 0 mm 1 m/s 753 mmHg 62%
    22:00 +13°C° 0 mm 2 m/s 753 mmHg 60%
    23:00 +13°C° 0 mm 2 m/s 753 mmHg 58%

    27 Janvier, Dimanche

    Heure Température Précipitation Vent Pression Humidité
    00:00 +12°C° 0 mm 3 m/s 752 mmHg 57%
    01:00 +12°C° 0 mm 3 m/s 752 mmHg 58%
    02:00 +12°C° 0 mm 3 m/s 751 mmHg 60%
    03:00 +12°C° 0 mm 4 m/s 751 mmHg 61%
    04:00 +11°C° 0 mm 4 m/s 751 mmHg 64%
    05:00 +11°C° 0 mm 4 m/s 750 mmHg 66%
    06:00 +11°C° 0 mm 4 m/s 750 mmHg 68%
    07:00 +12°C° 0 mm 4 m/s 750 mmHg 65%
    08:00 +13°C° 0 mm 5 m/s 750 mmHg 61%
    09:00 +15°C° 0 mm 5 m/s 750 mmHg 57%
    10:00 +15°C° 0 mm 7 m/s 750 mmHg 59%
    11:00 +16°C° 0 mm 9 m/s 750 mmHg 60%
    12:00 +17°C° 0 mm 11 m/s 750 mmHg 61%
    13:00 +17°C° 0 mm 10 m/s 749 mmHg 62%
    14:00 +16°C° 0 mm 9 m/s 749 mmHg 63%
    15:00 +16°C° 0 mm 8 m/s 748 mmHg 64%
    16:00 +15°C° 0 mm 6 m/s 749 mmHg 68%
    17:00 +14°C° 0 mm 4 m/s 749 mmHg 71%
    18:00 +13°C° 0 mm 2 m/s 749 mmHg 74%
    19:00 +12°C° 0.1 mm 3 m/s 750 mmHg 74%
    20:00 +12°C° 0.1 mm 4 m/s 751 mmHg 73%
    21:00 +12°C° 0.1 mm 5 m/s 751 mmHg 72%
    22:00 +12°C° 0.1 mm 5 m/s 751 mmHg 68%
    23:00 +11°C° 0.1 mm 6 m/s 751 mmHg 64%

    28 Janvier, Lundi

    Heure Température Précipitation Vent Pression Humidité
    00:00 +11°C° 0.1 mm 6 m/s 751 mmHg 60%
    01:00 +10°C° 0.2 mm 6 m/s 751 mmHg 62%
    02:00 +10°C° 0.2 mm 6 m/s 751 mmHg 63%
    03:00 +10°C° 0.2 mm 6 m/s 751 mmHg 64%
    04:00 +9°C° 0.1 mm 6 m/s 751 mmHg 60%
    05:00 +9°C° 0.1 mm 5 m/s 752 mmHg 56%
    06:00 +9°C° 0.1 mm 5 m/s 752 mmHg 52%
    07:00 +9°C° 0 mm 5 m/s 752 mmHg 50%
    08:00 +10°C° 0 mm 6 m/s 753 mmHg 49%
    09:00 +10°C° 0 mm 6 m/s 753 mmHg 47%
    10:00 +11°C° 0 mm 6 m/s 753 mmHg 44%
    11:00 +11°C° 0 mm 6 m/s 753 mmHg 42%
    12:00 +13°C° 0 mm 6 m/s 753 mmHg 39%
    13:00 +12°C° 0 mm 7 m/s 752 mmHg 40%
    14:00 +12°C° 0 mm 7 m/s 752 mmHg 41%
    15:00 +12°C° 0 mm 7 m/s 751 mmHg 43%
    16:00 +12°C° 0.1 mm 7 m/s 751 mmHg 48%
    17:00 +11°C° 0.1 mm 7 m/s 751 mmHg 53%
    18:00 +11°C° 0.1 mm 8 m/s 751 mmHg 58%
    19:00 +11°C° 0.2 mm 7 m/s 751 mmHg 59%
    20:00 +11°C° 0.2 mm 7 m/s 752 mmHg 60%
    21:00 +10°C° 0.2 mm 7 m/s 752 mmHg 61%
    22:00 +10°C° 0 mm 7 m/s 752 mmHg 60%
    23:00 +10°C° 0 mm 7 m/s 752 mmHg 60%
    Voir plus